Location: Lombard
(41.8800°N, 88.0080°W)
Time: 23:57:21
(UTC-05:00)

Tiros 1 - Pass Details

Date: 28 January 2023
Orbit: 628 x 662 km, 48.4° (Epoch: 20 March)

Event Time Altitude Azimuth Distance (km) Brightness Sun altitude
Rises 05:21:16 0° 284° (WNW) 2,934 - -20.0°
Reaches altitude 10° 05:23:44 10° 293° (WNW) 2,031 - -19.6°
Exits shadow 05:26:40 30° 324° (NW) 1,161 8.1 -19.0°
Maximum altitude 05:28:05 37° 1° (N) 1,012 8.0 -18.8°
Drops below altitude 10° 05:32:28 10° 69° (ENE) 2,052 10.6 -18.0°
Sets 05:34:59 0° 78° (ENE) 2,969 11.9 -17.5°
